Weather History for Boonville, MO

Change the Weather History Date:

Saturday, January 12, 2013

  Actual Average Record
Temperature  
Mean Temperature 42 °F -  
Max Temperature 59 °F 32 °F 65 °F (1960)
Min Temperature 26 °F 16 °F -10 °F (1974)
Degree Days  
Heating Degree Days 22    
Moisture  
Dew Point 27 °F    
Average Humidity 69    
Maximum Humidity 96    
Minimum Humidity 39    
Precipitation  
Precipitation 0.11 in - - ()
Sea Level Pressure  
Sea Level Pressure 29.95 in    
Wind  
Wind Speed 10 mph (NW)    
Max Wind Speed 17 mph    
Max Gust Speed 23 mph    
Visibility 8 miles    
Events Snow    
Averages and records for this station are not official NWS values.
T = Trace of Precipitation, MM = Missing Value Source: NWS Daily Summary

Daily Weather History Graph

Daily Weather History Graph

Search for Another Location

Airport:

Trip Planner

Search our weather history database for the weather conditions in past years. The results will help you decide how hot, cold, wet, or windy it might be!

Date:

Astronomy

Jan. 12, 2013 Rise Set
Actual Time 7:28 AM CST 5:09 PM CST
Civil Twilight 6:59 AM CST 5:39 PM CST
Nautical Twilight 6:26 AM CST 6:12 PM CST
Astronomical Twilight 5:54 AM CST 6:44 PM CST
Moon 7:48 AM CST (1/12) 6:38 PM CST (1/12)
Length of Visible Light 10h 39m
Length of Day
9h 41m
New Moon, 1% of the Moon is Illuminated
Jan 12
New Moon
Jan 18
First Quarter
Jan 26
Full
Feb 3
Last Quarter
Feb 10
New

Hourly Weather History & Observations

Time (CST) Temp. Windchill Dew Point Humidity Pressure Visibility Wind Dir Wind Speed Gust Speed Precip Events Conditions
12:15 AM 55.4 °F - 44.1 °F 66% 29.72 in 10.0 mi South 10.4 mph - N/A   Scattered Clouds
12:35 AM 55.8 °F - 44.1 °F 65% 29.75 in 10.0 mi South 9.2 mph - N/A   Mostly Cloudy
12:55 AM 55.9 °F - 43.7 °F 63% 29.75 in 10.0 mi South 5.8 mph - N/A   Scattered Clouds
1:15 AM 55.4 °F - 43.7 °F 65% 29.76 in 10.0 mi South 9.2 mph - N/A   Clear
1:35 AM 55.4 °F - 43.9 °F 65% 29.77 in 10.0 mi South 6.9 mph - N/A   Scattered Clouds
1:55 AM 55.6 °F - 44.1 °F 65% 29.78 in 10.0 mi SSW 5.8 mph - N/A   Clear
2:15 AM 57.7 °F - 44.2 °F 61% 29.80 in 10.0 mi SW 12.7 mph 18.4 mph N/A   Scattered Clouds
2:35 AM 59.0 °F - 44.2 °F 58% 29.80 in 10.0 mi SW 8.1 mph 17.3 mph N/A   Scattered Clouds
2:55 AM 58.6 °F - 44.4 °F 59% 29.82 in 10.0 mi SW 6.9 mph - N/A   Mostly Cloudy
3:15 AM 58.3 °F - 44.2 °F 60% 29.83 in 10.0 mi WSW 9.2 mph - N/A   Overcast
3:35 AM 58.1 °F - 41.9 °F 55% 29.83 in 10.0 mi West 9.2 mph 18.4 mph N/A   Overcast
3:55 AM 57.2 °F - 36.3 °F 46% 29.84 in 10.0 mi WNW 10.4 mph - N/A   Overcast
4:15 AM 54.3 °F - 33.1 °F 45% 29.85 in 10.0 mi WNW 9.2 mph - N/A   Scattered Clouds
4:35 AM 52.3 °F - 28.2 °F 39% 29.85 in 7.0 mi WNW 9.2 mph 17.3 mph N/A   Clear
4:55 AM 51.3 °F - 27.3 °F 40% 29.86 in 7.0 mi WNW 13.8 mph 19.6 mph N/A   Mostly Cloudy
5:15 AM 47.5 °F - 31.3 °F 53% 29.90 in 7.0 mi WNW 16.1 mph 20.7 mph N/A   Overcast
5:35 AM 43.9 °F 37.2 °F 32.9 °F 65% 29.92 in 10.0 mi WNW 13.8 mph 21.9 mph N/A   Mostly Cloudy
5:55 AM 41.7 °F 35.6 °F 33.3 °F 72% 29.93 in 10.0 mi West 10.4 mph 18.4 mph N/A   Mostly Cloudy
6:15 AM 40.1 °F 33.2 °F 32.9 °F 75% 29.94 in 10.0 mi WNW 11.5 mph 17.3 mph N/A   Scattered Clouds
6:35 AM 38.8 °F 31.6 °F 31.8 °F 76% 29.94 in 10.0 mi WNW 11.5 mph 18.4 mph N/A   Scattered Clouds
6:55 AM 38.3 °F 30.9 °F 31.6 °F 77% 29.95 in 10.0 mi NW 11.5 mph - N/A   Scattered Clouds
7:15 AM 37.9 °F 30.5 °F 30.9 °F 76% 29.97 in 10.0 mi NW 11.5 mph 17.3 mph N/A   Scattered Clouds
7:35 AM 36.9 °F 30.1 °F 29.5 °F 75% 29.98 in 10.0 mi NW 9.2 mph 17.3 mph N/A   Mostly Cloudy
7:55 AM 36.1 °F 28.2 °F 28.9 °F 75% 29.98 in 10.0 mi NW 11.5 mph 18.4 mph N/A   Scattered Clouds
8:15 AM 35.6 °F 31.7 °F 28.9 °F 77% 30.01 in 10.0 mi NW 4.6 mph 16.1 mph N/A   Scattered Clouds
8:35 AM 35.4 °F 26.0 °F 26.2 °F 69% 30.02 in 10.0 mi NNW 15.0 mph - N/A   Scattered Clouds
8:55 AM 34.3 °F 25.9 °F 21.7 °F 60% 30.04 in 10.0 mi NW 11.5 mph - N/A   Clear
9:15 AM 33.8 °F 26.4 °F 21.2 °F 60% 30.06 in 10.0 mi NW 9.2 mph - N/A   Scattered Clouds
9:35 AM 33.8 °F 25.8 °F 21.2 °F 60% 30.05 in 10.0 mi NNW 10.4 mph - N/A   Mostly Cloudy
9:55 AM 33.8 °F 24.8 °F 20.7 °F 59% 30.04 in 10.0 mi NW 12.7 mph 18.4 mph N/A   Scattered Clouds
10:15 AM 33.6 °F 24.6 °F 20.3 °F 58% 30.04 in 10.0 mi NW 12.7 mph 17.3 mph N/A   Clear
10:35 AM 33.4 °F 23.9 °F 20.1 °F 58% 30.04 in 10.0 mi NNW 13.8 mph - N/A   Clear
10:55 AM 33.1 °F 25.5 °F 20.3 °F 59% 30.06 in 10.0 mi NW 9.2 mph - N/A   Clear
11:15 AM 33.1 °F 24.9 °F 20.3 °F 59% 30.05 in 10.0 mi NW 10.4 mph - N/A   Clear
11:35 AM 33.1 °F 24.9 °F 18.9 °F 56% 30.03 in 10.0 mi NNW 10.4 mph - N/A   Mostly Cloudy
11:55 AM 33.8 °F 25.8 °F 19.4 °F 56% 30.01 in 10.0 mi North 10.4 mph - N/A   Overcast
12:15 PM 34.2 °F 26.8 °F 19.4 °F 55% 30.01 in 10.0 mi NW 9.2 mph - N/A   Overcast
12:35 PM 33.8 °F 26.4 °F 18.9 °F 54% 30.00 in 10.0 mi NNW 9.2 mph - N/A   Overcast
12:55 PM 33.8 °F 28.6 °F 18.5 °F 54% 30.00 in 10.0 mi NW 5.8 mph - N/A   Overcast
1:15 PM 34.0 °F 29.8 °F 18.5 °F 53% 30.01 in 10.0 mi North 4.6 mph - N/A   Overcast
1:35 PM 33.8 °F 27.0 °F 17.6 °F 52% 30.01 in 10.0 mi North 8.1 mph - N/A   Overcast
1:55 PM 33.8 °F 27.0 °F 17.6 °F 52% 30.03 in 10.0 mi NW 8.1 mph - N/A   Overcast
2:15 PM 33.8 °F 27.0 °F 18.5 °F 54% 30.01 in 10.0 mi NNW 8.1 mph - N/A   Overcast
2:35 PM 33.1 °F 24.4 °F 18.3 °F 55% 29.98 in 10.0 mi NNW 11.5 mph - N/A   Overcast
2:55 PM 32.4 °F 23.0 °F 18.9 °F 58% 29.96 in 10.0 mi North 12.7 mph 17.3 mph N/A   Overcast
3:15 PM 32.2 °F 24.4 °F 19.2 °F 59% 29.98 in 10.0 mi NNW 9.2 mph - N/A   Overcast
3:35 PM 31.8 °F 23.9 °F 19.4 °F 60% 29.98 in 10.0 mi NNW 9.2 mph - N/A   Overcast
3:55 PM 31.3 °F 22.7 °F 20.1 °F 63% 29.98 in 10.0 mi NNW 10.4 mph - N/A   Overcast
4:15 PM 30.9 °F 21.7 °F 19.8 °F 63% 29.96 in 10.0 mi NNW 11.5 mph 20.7 mph N/A   Overcast
4:35 PM 30.6 °F 21.2 °F 20.5 °F 66% 29.99 in 7.0 mi NNW 11.5 mph - N/A Snow Light Snow
4:55 PM 30.2 °F 22.6 °F 23.0 °F 75% 30.00 in 5.0 mi NW 8.1 mph - 0.01 in Snow Light Snow
5:15 PM 30.2 °F 22.6 °F 24.6 °F 80% 30.01 in 5.0 mi NW 8.1 mph - 0.01 in Snow Light Snow
5:35 PM 30.2 °F 21.9 °F 25.3 °F 82% 30.00 in 7.0 mi NNW 9.2 mph - 0.02 in Snow Light Snow
5:55 PM 29.8 °F 20.3 °F 25.0 °F 82% 29.99 in 7.0 mi NNW 11.5 mph - 0.02 in Snow Light Snow
6:15 PM 29.3 °F 18.6 °F 25.9 °F 87% 29.98 in 5.0 mi NNW 13.8 mph 20.7 mph 0.01 in Snow Light Snow
6:35 PM 28.8 °F 16.6 °F 27.3 °F 94% 29.94 in 2.0 mi NNW 17.3 mph 23.0 mph 0.02 in Snow Light Snow
6:55 PM 28.4 °F 19.1 °F 27.3 °F 96% 29.96 in 5.0 mi NNW 10.4 mph - 0.03 in Snow Light Snow
7:15 PM 28.4 °F 17.0 °F 27.0 °F 94% 29.94 in 4.0 mi NNW 15.0 mph 19.6 mph 0.01 in Snow Light Snow
7:35 PM 27.9 °F 17.3 °F 26.6 °F 95% 29.98 in 3.0 mi NNW 12.7 mph 17.3 mph 0.03 in   Overcast
7:55 PM 27.7 °F 18.8 °F 26.4 °F 95% 30.00 in 3.0 mi NW 9.2 mph - 0.04 in Snow Light Snow
8:15 PM 27.3 °F 19.9 °F 25.9 °F 94% 30.02 in 2.0 mi NW 6.9 mph - 0.01 in Snow Light Snow
8:35 PM 27.0 °F 18.7 °F 26.1 °F 96% 30.00 in 2.5 mi NNW 8.1 mph - 0.01 in Snow Light Snow
8:55 PM 27.0 °F 18.0 °F 26.1 °F 96% 30.01 in 4.0 mi NW 9.2 mph - 0.01 in Snow Light Snow
9:15 PM 26.8 °F 17.7 °F 25.7 °F 96% 30.01 in 4.0 mi NNW 9.2 mph - N/A Snow Light Snow
9:35 PM 26.4 °F 16.0 °F 25.0 °F 94% 29.99 in 3.0 mi NNW 11.5 mph 18.4 mph N/A Snow Light Snow
9:55 PM 26.2 °F 17.8 °F 24.8 °F 94% 30.00 in 2.5 mi NNW 8.1 mph 16.1 mph N/A Snow Light Snow
10:35 PM 26.2 °F 18.6 °F 24.6 °F 94% 30.01 in 10.0 mi NNW 6.9 mph - N/A   Overcast
10:55 PM 26.4 °F 17.3 °F 24.4 °F 92% 29.99 in 10.0 mi North 9.2 mph - N/A   Overcast
11:35 PM 26.2 °F 17.1 °F 23.5 °F 90% 30.01 in 10.0 mi NNW 9.2 mph 16.1 mph N/A   Overcast
11:55 PM 26.1 °F 16.8 °F 23.0 °F 88% 30.02 in 10.0 mi NNW 9.2 mph - N/A   Overcast